Погода в Чардаре

Хотите узнать прогноз погоды в Чардаре? Тогда Вам сюда: Погода в Чардаре

Поиск расширенной информации на нашем сайте:

Полезная информация:

Новости сайта



02.01.2020
Опубликован Долгосрочный прогноз погоды по городам России и ближнего зарубежья на январь 2020 года.
Карты: Прогноз на январь и февраль 2020 года, Сравнение прогнозируемой аномалии приземной температуры воздуха на январь 2020 года по разным моделям.




Погода в Чардаре - сегодня

Время (UTC), дата Ветер
(°,м/с) 
Видим.   Явления Облачность Т
(°С)
Тd
(°С)
f(%) Тe
(°С)
Pmin
(гПа)
dP
(гПа)
Po
(мм)
O2
(г/м3)
Тmin Tmax R s Состояние
почвы
12 22.10.21 360 (С) 20000 м    6/0 верхняя 
[Cs]
+9.8 -2.3 43 +11  1034.5  0.9  751  292           
15 22.10.21 060 (СВ) 20000 м    8/0 средняя, верхняя 
[Ac cuf|Ci sp]
+7.8 -3.3 45 +8  1035.9  1.1  752  295    +11.2       
18 22.10.21 030 (СВ) 20000 м    4/0 средняя 
[Ac trans]
+6.3 -2.9 52 +5  1036.1  752  296    +11.2       
21 22.10.21 080 (В) 20000 м    5/0 средняя, верхняя 
[Ac trans|Ci sp]
+5.1 -2.8 57 +4  1035  -1.2  751  297           
00 23.10.21 360 (С) 20000 м    9/0 средняя 
[Ac cast]
+1.5 -1.7 79 1034.5  -0.9  750  301           
03 23.10.21 360 (С) 20000 м    3/0 средняя 
[Ac lent]
+2 -0.8 82 +1  1034.7  0.2  750  300           
06 23.10.21 050 (СВ) 20000 м    ясно 
+10.5 -0.9 45 +10  1033.2  -0.4  750  291  +1.4         
09 23.10.21 тихо ()   20000 м    ясно 
+14.4 -1.2 34 +14  1030.2  -2.5  748  286           
12 23.10.21 360 (С) 20000 м    3/0 верхняя 
[Ci fib]
+5.1 -3.1 55 +5  1029.1  -1  747  296           
15 23.10.21 360 (С) 20000 м    ясно 
+9.9 -3.3 39 +9  1029.9  0.2  747  291    +16.6       
18 23.10.21 020 (С) 20000 м    ясно 
+5.5 -1.9 59 +4  1028.7  -1.6  746  295    +16.6       
21 23.10.21 360 (С) 20000 м    ясно 
+3.6 -2 67 +3  1027.1  -1.8  745  296           
00 24.10.21 020 (С) 20000 м    ясно 
+3 -2.1 69 +2  1025.6  -1.5  744  297           
03 24.10.21 330 (СЗ) 20000 м    ясно 
+2.7 -2.8 67 +3  1024.7  -0.9  743  297           
06 24.10.21 тихо ()   20000 м    ясно 
+10.1 -0.7 47 +10  1022.1  -1.6  742  288  +2.2         
09 24.10.21 150 (ЮВ) 20000 м    ясно 
+15.1 +1.1 39 +16  1018.9  -2.6  740  282           
12 24.10.21 140 (ЮВ) 20000 м    ясно 
+15.7 +3 42 +16  1017.7  -1.1  739  281           
15 24.10.21 130 (ЮВ) 20000 м    ясно 
+13.4 +1.7 45 +15  1017.8  -0.2  739  284    +16.5       
18 24.10.21 130 (ЮВ) 20000 м    ясно 
+11.7 +2.6 54 +13  1016.8  -1.1  738  285    +16.5       
21 24.10.21 120 (ЮВ) 20000 м    ясно 
+9.1 +5.6 79 +9  1015.6  -1.5  737  286           
00 25.10.21 130 (ЮВ) 20000 м    ясно 
+8.3 +3.5 72 +8  1015.3  -0.3  737  288           
03 25.10.21 120 (ЮВ) 10 км    ясно 
+6.9 +3.1 77 +6  1016.5  0.9  737  289           
06 25.10.21 170 (Ю) 10 км    ясно 
+14.3 +2.1 44 +14  1016.2  0.6  738  282  +6.8         
09 25.10.21 150 (ЮВ) 20000 м    ясно 
+17.9 +2.2 35 +19  1014.8  -1  737  278           
12 25.10.21 100 (В) 10 км    ясно 
+17.3 +3.1 39 +18  1015  0.1  737  279           
Время (UTC), дата Ветер
(°,м/с) 
Видим.   Явления Облачность Т
(°С)
Тd
(°С)
f(%) Тe
(°С)
Pmin
(гПа)
dP
(гПа)
Po
(мм)
O2
(г/м3)
Тmin Tmax R s Состояние
почвы

Для получения пояснительной информации подведите курсор к названию столбца.

ПОГОДА в Чардаре - архив

Всё, что Вы хотите узнать о погоде в Чардаре - удобно и подробно!

Выберите нужную дату (начиная с 1 января 2019* года) и нажмите кнопку "Найти".
Будут отображены архивные сводки погоды по пункту Чардара, начиная с указанной даты.


Отображать данные в формате CSV (для использования в таблицах Excel)


Внимание! Наш архив погоды предназначен исключительно для личного некоммерческого использования в познавательных целях. Если Вам необходимы официальные справки о состоянии погоды (для производственных, юридических, коммерческих и т.п. целей), обращайтесь в органы Росгидромета.

*Примечание: данная дата относится к архиву по метеостанциям СССР (Россия, СНГ, Балтия).
Архив по метеостанциям Зарубежной Европы и Азии (кроме Китая) хранится 10 дней, по другим регионам земного шара (Китай, Африка, Америка, Австралия, Океания) - 1 день.

Чардара - район местоположения метеостанции


Название, широта, долгота, высота метеостанции:
Чардара 41.4°ш. 68°д. 275 м над ур. моря [Казахстан]

Дополнительная информация

В oтличие oт бoльшинства пoгoдных сайтoв мы публикуем пoдрoбную метеoинфoрмацию в детальнoм прoфессиoнальнoм фoрмате.

Характеристики температуры и влажнoсти вoздуха измеряются на высoте 2 м в тени вдали oт зданий и деревьев.
Скoрoсть ветра измеряется на высoте 10 м (на урoвне рoста челoвека скoрoсть ветра ниже в 1.5-2 раза). Если метеoстанция нахoдится в гoрoде или в лесу, тo скoрoсть ветра занижена на 2-4 м/с пo сравнению с oткрытым местoм. Скoрoсть ветра над акватoриями крупных рек и oзёр, а также на вершинах хoлмoв на 2-5 м/с выше, чем в oбычных услoвиях.
Атмoсфернoе давление в разных тoчках местнoсти мoжет значительнo oтличаться oт давления на метеoстанции, в зависимoсти oт услoвий рельефа (при пoдъёме на 10 м давление пoнижается примернo на 1 мм рт.ст.).